Weather History for KPIT - August, 2013

Change the Weather History Date:

Monday, August 26, 2013

  Actual Average Record
Temperature  
Mean Temperature 74 °F 70 °F  
Max Temperature 85 °F 81 °F 98 °F (1993)
Min Temperature 63 °F 60 °F 48 °F (1958)
Degree Days  
Heating Degree Days 0 0  
Month to date heating degree days 10 0  
Since 1 June heating degree days 27 42  
Since 1 July heating degree days 11 4  
Cooling Degree Days 9 6  
Month to date cooling degree days 134 180  
Year to date cooling degree days 659 623  
Since 1 June cooling degree days 555 571  
Growing Degree Days 24 (Base 50)    
Moisture  
Dew Point 59 °F    
Average Humidity 61    
Maximum Humidity 78    
Minimum Humidity 43    
Precipitation  
Precipitation 0.02 in 0.11 in 2.92 in (1871)
Month to date precipitation 1.05 2.93  
Year to date precipitation 25.03 26.16  
Snow  
Snow 0.00 in 0.00 in 0.00 in (2002)
Month to date snowfall 0.0 0.0  
Since 1 July snowfall 0.0 0.0  
Snow Depth 0.00 in    
Sea Level Pressure  
Sea Level Pressure 30.17 in    
Wind  
Wind Speed 7 mph (WSW)    
Max Wind Speed 17 mph    
Max Gust Speed 24 mph    
Visibility 10 miles    
Events Rain    
T = Trace of Precipitation, MM = Missing Value Source: NWS Daily Summary

Daily Weather History Graph

Daily Weather History Graph

Search for Another Location

Airport or City:

Trip Planner

Search our weather history database for the weather conditions in past years. The results will help you decide how hot, cold, wet, or windy it might be!

Date:

Astronomy

Aug. 26, 2013 Rise Set
Actual Time 6:42 AM EDT 8:01 PM EDT
Civil Twilight 6:14 AM EDT 8:30 PM EDT
Nautical Twilight 5:40 AM EDT 9:04 PM EDT
Astronomical Twilight 5:04 AM EDT 9:39 PM EDT
Moon 11:09 PM EDT (8/26) 12:44 PM EDT (8/26)
Length of Visible Light 14h 16m
Length of Day
13h 19m
Waning Gibbous, 67% of the Moon is Illuminated
Aug 26
Waning Gibbous
Aug 28
Last Quarter
Sep 5
New
Sep 12
First Quarter
Sep 19
Full

Hourly Weather History & Observations

Time (EDT) Temp. Heat Index Dew Point Humidity Pressure Visibility Wind Dir Wind Speed Gust Speed Precip Events Conditions
12:51 AM 68.0 °F - 57.0 °F 68% 30.27 in 10.0 mi SW 3.5 mph - N/A   Mostly Cloudy
1:51 AM 66.0 °F - 57.0 °F 73% 30.25 in 10.0 mi SW 4.6 mph - N/A   Mostly Cloudy
2:51 AM 64.9 °F - 57.0 °F 75% 30.24 in 10.0 mi SW 3.5 mph - N/A   Mostly Cloudy
3:51 AM 64.0 °F - 57.0 °F 78% 30.23 in 10.0 mi SW 3.5 mph - N/A   Scattered Clouds
4:51 AM 64.0 °F - 57.0 °F 78% 30.22 in 10.0 mi SW 4.6 mph - N/A   Scattered Clouds
5:51 AM 64.0 °F - 55.9 °F 75% 30.23 in 10.0 mi SW 3.5 mph - N/A   Scattered Clouds
6:51 AM 63.0 °F - 55.9 °F 78% 30.24 in 10.0 mi Calm Calm - N/A   Scattered Clouds
7:51 AM 66.0 °F - 55.9 °F 70% 30.25 in 10.0 mi WSW 4.6 mph - N/A   Partly Cloudy
8:51 AM 69.1 °F - 55.9 °F 63% 30.25 in 10.0 mi WSW 9.2 mph - N/A   Partly Cloudy
9:51 AM 73.9 °F - 57.9 °F 57% 30.24 in 10.0 mi SW 4.6 mph - N/A   Mostly Cloudy
10:51 AM 77.0 °F - 59.0 °F 54% 30.23 in 10.0 mi WSW 5.8 mph - N/A   Mostly Cloudy
11:51 AM 79.0 °F - 59.0 °F 50% 30.22 in 10.0 mi West 6.9 mph - N/A   Mostly Cloudy
12:51 PM 82.0 °F 82.4 °F 60.1 °F 47% 30.20 in 10.0 mi West 9.2 mph - N/A   Scattered Clouds
1:51 PM 82.9 °F 82.6 °F 57.9 °F 42% 30.16 in 10.0 mi West 9.2 mph - N/A   Scattered Clouds
2:51 PM 84.0 °F 84.0 °F 60.1 °F 44% 30.13 in 10.0 mi SW 9.2 mph - N/A   Mostly Cloudy
3:51 PM 82.9 °F 82.8 °F 59.0 °F 44% 30.11 in 10.0 mi SW 13.8 mph 17.3 mph N/A   Mostly Cloudy
4:51 PM 82.9 °F 82.8 °F 59.0 °F 44% 30.08 in 10.0 mi SW 12.7 mph 21.9 mph N/A   Overcast
5:51 PM 82.0 °F 82.4 °F 60.1 °F 47% 30.09 in 10.0 mi WSW 12.7 mph 18.4 mph N/A   Mostly Cloudy
6:51 PM 81.0 °F 81.9 °F 62.1 °F 52% 30.06 in 10.0 mi WSW 11.5 mph 19.6 mph N/A   Mostly Cloudy
7:51 PM 79.0 °F - 63.0 °F 58% 30.07 in 10.0 mi SW 6.9 mph - N/A   Overcast
8:51 PM 75.9 °F - 64.0 °F 67% 30.09 in 10.0 mi West 3.5 mph - N/A   Mostly Cloudy
9:51 PM 75.0 °F - 66.9 °F 76% 30.08 in 10.0 mi SSW 4.6 mph - 0.01 in   Overcast
10:51 PM 73.9 °F - 64.9 °F 73% 30.07 in 10.0 mi SSW 3.5 mph - N/A   Overcast
11:51 PM 72.0 °F - 66.9 °F 84% 30.06 in 8.0 mi WSW 4.6 mph - 0.00 in Rain Light Rain